Estación de Peldehue
Ultimos registro cada 15 minutos 94
| N° | Estación | Fecha / Hora | Temperatura | Humedad | Lluvia | Velocidad | Dirección | Radiación | Presion |
| 94 | Peldehue | 06-05-2026 23:15 | 10,1 | 92,9 | 0 | 0,5 | 230 | 0,6 | 939,5 |
| 93 | Peldehue | 06-05-2026 23:00 | 10,2 | 93 | 0,2 | 0 | 209 | 0,6 | 939,2 |
| 92 | Peldehue | 06-05-2026 22:45 | 10,2 | 93,2 | 0,2 | 0 | 209 | 0,6 | 938,9 |
| 91 | Peldehue | 06-05-2026 22:30 | 10,1 | 92,8 | 0 | 1 | 223 | 0,6 | 939 |
| 90 | Peldehue | 06-05-2026 22:15 | 10,2 | 92,4 | 0,2 | 1 | 216 | 0,6 | 938,9 |
| 89 | Peldehue | 06-05-2026 22:00 | 10,4 | 92,3 | 0,2 | 0,5 | 218 | 0,6 | 938,9 |
| 88 | Peldehue | 06-05-2026 21:45 | 10,5 | 92 | 0,2 | 0,5 | 218 | 0,6 | 938,9 |
| 87 | Peldehue | 06-05-2026 21:30 | 10,6 | 91,9 | 0,2 | 0,5 | 219 | 0,6 | 938,8 |
| 86 | Peldehue | 06-05-2026 21:15 | 10,7 | 92,4 | 0,2 | 0,5 | 219 | 0,6 | 938,7 |
| 85 | Peldehue | 06-05-2026 21:00 | 10,7 | 92,5 | 0,2 | 0,5 | 219 | 0,6 | 938,6 |
| 84 | Peldehue | 06-05-2026 20:45 | 10,6 | 92,4 | 0,4 | 0,5 | 226 | 0,6 | 938,4 |
| 83 | Peldehue | 06-05-2026 20:30 | 10,7 | 92,7 | 0,2 | 0,5 | 237 | 0,6 | 938,4 |
| 82 | Peldehue | 06-05-2026 20:15 | 10,9 | 92,7 | 0,2 | 0,5 | 227 | 0,6 | 938,1 |
| 81 | Peldehue | 06-05-2026 20:00 | 11,3 | 92,4 | 0,4 | 0 | 219 | 0,6 | 938,1 |
| 80 | Peldehue | 06-05-2026 19:45 | 11,2 | 92,2 | 0,2 | 0 | 219 | 0,6 | 938 |
| 79 | Peldehue | 06-05-2026 19:30 | 11,4 | 92,3 | 0,2 | 0,5 | 218 | 0,6 | 938 |
| 78 | Peldehue | 06-05-2026 19:15 | 11,4 | 92,1 | 0,4 | 0,5 | 220 | 0,6 | 937,7 |
| 77 | Peldehue | 06-05-2026 19:00 | 11,6 | 91,6 | 0 | 1 | 230 | 0,6 | 937,9 |
| 76 | Peldehue | 06-05-2026 18:45 | 12,1 | 90,5 | 0,2 | 1 | 277 | 0,6 | 937,7 |
| 75 | Peldehue | 06-05-2026 18:30 | 13,1 | 89,2 | 0,2 | 0 | 15 | 0,6 | 937,4 |
| 74 | Peldehue | 06-05-2026 18:15 | 13,3 | 88,2 | 0,2 | 0 | 15 | 0,6 | 937,1 |
| 73 | Peldehue | 06-05-2026 18:00 | 13,3 | 88 | 0,2 | 0 | 15 | 0,6 | 937,3 |
| 72 | Peldehue | 06-05-2026 17:45 | 13,6 | 86,7 | 0 | 0 | 13 | 4,4 | 937,3 |
| 71 | Peldehue | 06-05-2026 17:30 | 14 | 84,5 | 0,2 | 0 | 10 | 11,9 | 937,3 |
| 70 | Peldehue | 06-05-2026 17:15 | 14,2 | 83,4 | 0,2 | 0 | 10 | 19,4 | 937 |
| 69 | Peldehue | 06-05-2026 17:00 | 14,8 | 78 | 0 | 0 | 20 | 8,1 | 936,9 |
| 68 | Peldehue | 06-05-2026 16:45 | 15,3 | 75,9 | 0 | 0 | 18 | 18,1 | 937 |
| 67 | Peldehue | 06-05-2026 16:30 | 15,8 | 70,7 | 0 | 0 | 18 | 40,6 | 937 |
| 66 | Peldehue | 06-05-2026 16:15 | 16 | 71,6 | 0 | 0 | 22 | 58,1 | 937 |
| 65 | Peldehue | 06-05-2026 16:00 | 16,3 | 67,6 | 0 | 0,5 | 35 | 83,1 | 936,9 |
| 64 | Peldehue | 06-05-2026 15:45 | 16,7 | 65,1 | 0 | 0,5 | 31 | 75,6 | 937 |
| 63 | Peldehue | 06-05-2026 15:30 | 16,6 | 65,6 | 0 | 0,5 | 13 | 75,6 | 936,9 |
| 62 | Peldehue | 06-05-2026 15:15 | 17,3 | 60,3 | 0 | 0,5 | 45 | 66,9 | 936,9 |
| 61 | Peldehue | 06-05-2026 15:00 | 17,5 | 59,1 | 0 | 1 | 39 | 144,4 | 936,9 |
| 60 | Peldehue | 06-05-2026 14:45 | 17,7 | 58,9 | 0 | 0,5 | 348 | 134,4 | 936,6 |
| 59 | Peldehue | 06-05-2026 14:30 | 18,1 | 55,4 | 0 | 0,5 | 334 | 96,9 | 936,7 |
| 58 | Peldehue | 06-05-2026 14:15 | 18,8 | 52,8 | 0 | 0,5 | 355 | 213,1 | 936,7 |
| 57 | Peldehue | 06-05-2026 14:00 | 19 | 50,6 | 0 | 0,5 | 358 | 195,6 | 936,4 |
| 56 | Peldehue | 06-05-2026 13:45 | 19,3 | 48,7 | 0 | 1 | 1 | 240,6 | 936,4 |
| 55 | Peldehue | 06-05-2026 13:30 | 18,9 | 48,4 | 0 | 1,5 | 358 | 200,6 | 936,5 |
| 54 | Peldehue | 06-05-2026 13:15 | 19,1 | 47,7 | 0 | 1,5 | 358 | 215,6 | 936,3 |
| 53 | Peldehue | 06-05-2026 13:00 | 19,6 | 45,2 | 0 | 1,5 | 357 | 240,6 | 936,4 |
| 52 | Peldehue | 06-05-2026 12:45 | 19,9 | 43,4 | 0 | 1 | 357 | 273,1 | 936,1 |
| 51 | Peldehue | 06-05-2026 12:30 | 21,4 | 37,7 | 0 | 0,5 | 358 | 343,1 | 936 |
| 50 | Peldehue | 06-05-2026 12:15 | 21,7 | 29,9 | 0 | 1,5 | 18 | 393,1 | 935,5 |
| 49 | Peldehue | 06-05-2026 12:00 | 21,3 | 30,5 | 0 | 1,5 | 25 | 334,4 | 935,5 |
| 48 | Peldehue | 06-05-2026 11:45 | 23,5 | 26,7 | 0 | 1,5 | 3 | 298,1 | 935,7 |
| 47 | Peldehue | 06-05-2026 11:30 | 23,8 | 27,9 | 0 | 1,5 | 18 | 684,4 | 935,4 |
| 46 | Peldehue | 06-05-2026 11:15 | 22,8 | 28,9 | 0 | 1,5 | 27 | 704,4 | 934,7 |
| 45 | Peldehue | 06-05-2026 11:00 | 20,8 | 31,2 | 0 | 1,5 | 25 | 435,6 | 935 |
| 44 | Peldehue | 06-05-2026 10:45 | 20,9 | 34,8 | 0 | 1 | 18 | 345,6 | 935,1 |
| 43 | Peldehue | 06-05-2026 10:30 | 19,7 | 37,4 | 0 | 0,5 | 20 | 260,6 | 935,1 |
| 42 | Peldehue | 06-05-2026 10:15 | 19,3 | 46,7 | 0 | 0 | 41 | 298,1 | 935,5 |
| 41 | Peldehue | 06-05-2026 10:00 | 18,6 | 51,2 | 0 | 0 | 44 | 346,9 | 935,3 |
| 40 | Peldehue | 06-05-2026 09:45 | 18,5 | 50,9 | 0 | 0 | 46 | 330,6 | 935,4 |
| 39 | Peldehue | 06-05-2026 09:30 | 18,2 | 52,6 | 0 | 0 | 48 | 269,4 | 935,7 |
| 38 | Peldehue | 06-05-2026 09:15 | 18,3 | 54,2 | 0 | 0 | 51 | 316,9 | 935,6 |
| 37 | Peldehue | 06-05-2026 09:00 | 16,8 | 58 | 0 | 0 | 58 | 260,6 | 935,7 |
| 36 | Peldehue | 06-05-2026 08:45 | 15,2 | 63,5 | 0 | 0,5 | 146 | 214,4 | 935,6 |
| 35 | Peldehue | 06-05-2026 08:30 | 10,2 | 81,7 | 0 | 0 | 209 | 29,4 | 935,8 |
| 34 | Peldehue | 06-05-2026 08:15 | 7,8 | 86,4 | 0 | 0 | 209 | 19,4 | 935,9 |
| 33 | Peldehue | 06-05-2026 08:00 | 7,4 | 86,7 | 0 | 0 | 209 | 11,9 | 935,7 |
| 32 | Peldehue | 06-05-2026 07:45 | 7,7 | 85,6 | 0 | 0 | 209 | 8,1 | 935,7 |
| 31 | Peldehue | 06-05-2026 07:30 | 8 | 88,4 | 0 | 0 | 209 | 4,4 | 935,4 |
| 30 | Peldehue | 06-05-2026 07:15 | 7,6 | 87,5 | 0 | 0 | 211 | 1,9 | 934,9 |
| 29 | Peldehue | 06-05-2026 07:00 | 7,3 | 87 | 0 | 0 | 212 | 0,6 | 935 |
| 28 | Peldehue | 06-05-2026 06:45 | 8,1 | 83,9 | 0 | 0 | 208 | 0,6 | 934,5 |
| 27 | Peldehue | 06-05-2026 06:30 | 9,1 | 84,1 | 0 | 0 | 208 | 0,6 | 934,3 |
| 26 | Peldehue | 06-05-2026 06:15 | 9,1 | 84,6 | 0 | 0 | 208 | 0,6 | 934,2 |
| 25 | Peldehue | 06-05-2026 06:00 | 8,5 | 86,2 | 0 | 0 | 209 | 0,6 | 934,1 |
| 24 | Peldehue | 06-05-2026 05:45 | 7,8 | 85,1 | 0 | 0 | 209 | 0,6 | 933,8 |
| 23 | Peldehue | 06-05-2026 05:30 | 7,8 | 85,9 | 0 | 0 | 211 | 0,6 | 933,7 |
| 22 | Peldehue | 06-05-2026 05:15 | 8,7 | 85,6 | 0 | 0 | 209 | 0,6 | 933,6 |
| 21 | Peldehue | 06-05-2026 05:00 | 9,1 | 85,2 | 0 | 0 | 209 | 0,6 | 933,4 |
| 20 | Peldehue | 06-05-2026 04:45 | 8,6 | 84,6 | 0 | 0 | 209 | 0,6 | 933,5 |
| 19 | Peldehue | 06-05-2026 04:30 | 8,2 | 86,2 | 0 | 0 | 211 | 0,6 | 933,4 |
| 18 | Peldehue | 06-05-2026 04:15 | 8,8 | 82,8 | 0 | 0 | 209 | 0,6 | 933,1 |
| 17 | Peldehue | 06-05-2026 04:00 | 9 | 83 | 0 | 0 | 209 | 0,6 | 933,1 |
| 16 | Peldehue | 06-05-2026 03:45 | 8,7 | 83,3 | 0 | 0 | 209 | 0,6 | 933 |
| 15 | Peldehue | 06-05-2026 03:30 | 9,4 | 83,3 | 0 | 0 | 209 | 0,6 | 933,1 |
| 14 | Peldehue | 06-05-2026 03:15 | 9,9 | 83,3 | 0 | 0 | 209 | 0,6 | 932,9 |
| 13 | Peldehue | 06-05-2026 03:00 | 10,2 | 82,5 | 0 | 0 | 212 | 0,6 | 933,2 |
| 12 | Peldehue | 06-05-2026 02:45 | 10,6 | 81,9 | 0 | 0 | 215 | 0,6 | 933,5 |
| 11 | Peldehue | 06-05-2026 02:30 | 10,9 | 81 | 0 | 0 | 215 | 0,6 | 933,4 |
| 10 | Peldehue | 06-05-2026 02:15 | 10,7 | 80,5 | 0 | 0 | 215 | 0,6 | 933,9 |
| 9 | Peldehue | 06-05-2026 02:00 | 10,8 | 80,6 | 0 | 0 | 215 | 0,6 | 933,9 |
| 8 | Peldehue | 06-05-2026 01:45 | 10,9 | 80,6 | 0 | 0 | 215 | 0,6 | 933,9 |
| 7 | Peldehue | 06-05-2026 01:30 | 11 | 79,1 | 0 | 0 | 215 | 0,6 | 934 |
| 6 | Peldehue | 06-05-2026 01:15 | 11 | 80,2 | 0 | 0 | 215 | 0,6 | 934,2 |
| 5 | Peldehue | 06-05-2026 01:00 | 11,2 | 82,1 | 0 | 0 | 215 | 0,6 | 934,4 |
| 4 | Peldehue | 06-05-2026 00:45 | 11,2 | 80,7 | 0 | 0 | 215 | 0,6 | 934,3 |
| 3 | Peldehue | 06-05-2026 00:30 | 11,4 | 81,3 | 0 | 0 | 215 | 0,6 | 934,5 |
| 2 | Peldehue | 06-05-2026 00:15 | 11,4 | 80,4 | 0 | 0 | 215 | 0,6 | 934,5 |
| 1 | Peldehue | 06-05-2026 00:00 | 11,4 | 80,4 | 0 | 0 | 215 | 0,6 | 934,3 |